Regional Weather Roundup
Issued by NWS Jackson, KY

Home | Current Version | Previous Version | Graphics & Text | Print | Product List | Glossary On
Versions: 1 2 3 4 5 6 7 8 9 10 11 12 13 14 15 16 17 18 19 20 21 22 23 24 25 26 27 28 29 30 31 32 33 34 35 36 37 38 39 40 41 42 43 44 45 46 47 48 49 50
000
ASUS43 KJKL 201510
RWRJKL

EAST KENTUCKY HOURLY WEATHER ROUNDUP
NATIONAL WEATHER SERVICE JACKSON KY
1100 AM EDT SUN APR 20 2014

NOTE: "FAIR" INDICATES FEW OR NO CLOUDS BELOW 12,000 FEET WITH
NO SIGNIFICANT WEATHER AND/OR OBSTRUCTIONS TO VISIBILITY.

* THESE REPORTS ARE NOT UNDER NWS QUALITY CONTROL AND MAY NOT
  REPORT WEATHER SUCH AS PRECIPITATION AND FOG.

KYZ079-080-083-085-087-088-110-112-115-119-120-201600
...EASTERN KENTUCKY...

CITY           SKY/WX    TMP DP  RH WIND       PRES   REMARKS
JACKSON        SUNNY     64  37  36 CALM      30.27R
LONDON         SUNNY     66  39  37 VRB6      30.26S
SOMERSET*      SUNNY     64  37  36 S6        30.27S
MONTICELLO*    SUNNY     68  44  41 SE3       30.26S
WILLIAMSBURG*  SUNNY     64  41  42 SE6       30.27
MIDDLESBORO*   SUNNY     65  40  39 SE6       30.27F
HARLAN APT*    SUNNY     64  34  32 CALM      30.27S
BLACK MTN*       N/A     57  34  41 NE1         N/A
PIKEVILLE APT* SUNNY     63  36  36 S6        30.28R
BIG SANDY*     SUNNY     66  40  38 E7        30.28S
MOREHEAD APT*  SUNNY     66  37  34 SE7       30.29R
$$

KYZ035-036-041-042-044-050-067-078-099-201600
...CENTRAL KENTUCKY...

CITY           SKY/WX    TMP DP  RH WIND       PRES   REMARKS
MT STERLING*   SUNNY     63  41  45 SW6       30.28R
FLEMING/MASON* SUNNY     64  41  42 SE6       30.27F
DANVILLE*      SUNNY     64  45  48 SW3       30.26S
LEXINGTON      SUNNY     66  39  37 S5        30.26S
FRANKFORT      SUNNY     64  41  42 CALM      30.24F
$$

KYZ091>093-OHZ055-061-077-WVZ005-015-034-035-042-201600
...SOUTHERN OHIO/WEST VIRGINIA...

CITY           SKY/WX    TMP DP  RH WIND       PRES   REMARKS
COVINGTON      MOSUNNY   63  35  35 SE3       30.26F
COLUMBUS       PTSUNNY   63  35  35 SE8       30.28S
DAYTON         PTSUNNY   60  34  37 E5        30.28S
WILMINGTON     SUNNY     61  35  37 SE6       30.27S
HUNTINGTON     SUNNY     64  38  38 E9        30.28S
CHARLESTON     MOSUNNY   65  31  28 E10       30.29S
PINEVILLE*     SUNNY     63  32  31 MISG      30.35S
BECKLEY        SUNNY     56  27  32 SE13      30.32R
BLUEFIELD      SUNNY     59  25  27 SE12      30.33R
$$

VAZ002-007-008-TNZ017-027-036-066-071-201600
...SOUTHWEST VIRGINIA/EAST TENNESSEE...

CITY           SKY/WX    TMP DP  RH WIND       PRES   REMARKS
WISE*          SUNNY     59  28  31 E8        30.30S
ABINGDON*      SUNNY     60  33  36 E9G16     30.30S
BRISTOL        MOSUNNY   62  35  36 CALM      30.29S
OAK RIDGE      SUNNY     65  42  43 E8        30.27S
CROSSVILLE     SUNNY     64  39  39 VRB5      30.27R
NASHVILLE      MOSUNNY   68  44  42 W6        30.24S
$$

...KEY TO REMARKS...
VSB - VISIBILITY IN MILES
WCI - WIND CHILL INDEX
HX  - HEAT INDEX

$$



USA.gov is the U.S. government's official web portal to all federal, state and local government web resources and services.